Location: Courçay
(47.2523°N, 0.8761°E)
Time: 07:01:41
(UTC+00:00)

Cosmos 2369 Rocket - Pass Details

Date: 18 November 2025
Orbit: 826 x 852 km, 71.0° (Epoch: 06 December)

Event Time Altitude Azimuth Distance (km) Brightness Sun altitude
Rises 17:46:01 0° 152° (SSE) 3,358 5.2 -14.8°
Reaches altitude 10° 17:49:31 10° 130° (SE) 2,435 4.2 -15.4°
Enters shadow 17:50:11 12° 124° (ESE) 2,315 4.1 -15.5°
